STARLINK-31835, 59772

Orbit data source: Space-Track

STARLINK-31835, 59772 is a payload satellite owned by SpaceX/Seattle (US) in LEO that was launched on Tue, 14 May 2024 UTC via an FALCON 9 launch vehicle from the Air Force Western Test Range (AFWTR). Payload-class satellites include a variety of spacecraft equipped with specific instruments for various scientific and technological missions. These include communications satellites like Starlink; space stations such as the ISS; scientific satellites like the Hubble; Earth observation satellites from companies like Planet Labs, Umbra, and HawkEye 360; GPS; miniature CubeSats for education and research; and military/defense satellites.

Loading next visibility...
Identifier
59772, 2024-091V
Orbit
LEO
Country
Flag of USUS
Related business
Manufacturer
SpaceX/Seattle
Mission
Operational Commercial Communications
Bus & Motor
STARLINK V2M, Unknown motor
Mass
730 kg wet, ~700 kg dry
Launch date (UTC)
2024-05-14 (2 years ago)
Launch vehicle
FALCON 9
Launch site
Air Force Western Test Range (AFWTR)
Object type
Payload
Rocket body
Debris
Shape & HBR
Box + 2 Pan, 17.7 m
Radar Cross Section
33.884 m², Large (>1 m²)

Expand to show TLE details & history
Last TLE update: 2 days ago

TLE from 2 days ago
0 STARLINK-31835
1 59772U 24091V   26171.43707856  .00001738  00000-0  67744-4 0  9994
2 59772  53.1590 269.0557 0001100  89.2082 270.9045 15.31703451118748
Epoch: 2026-06-20T10:29Z
TLE epoch observation values (Epoch: 2026-06-20T10:29:23.587Z)
Latitude
-0.00006°
Longitude
-156.94434°
Altitude
471.618 km
Speed
7.631 km/s
True Right ascension
17h 56m 13s
True Declination
0° 00' 00"
Sunlit
Object was in full shadow at epoch
Visualization orbit readout
Latitude
Unknown
Longitude
Unknown
Altitude
Unknown
Speed
Unknown
Apparent Right ascension
Unknown
Apparent Declination
Unknown
Sunlit
N/A
Visualization observer readout
Local Sidereal Time
21:27:27
Azimuth
Unknown
Elevation
Unknown
Doppler factor
Unknown
Orbital elements
Apogee altitude
471.74 km
Perigee altitude
470.233 km
Semi-major axis
6,849.123 km
Eccentricity
0.00011
Inclination
53.159°
RAAN
269.0557°
Arg. of periapsis
89.2082°
True anomaly
270.8919°
Mean anomaly
270.9045°
Eccentric anomaly
270.8982°
Mean motion
3.82905 °/min
Orbital period
94.02 mins
BSTAR
0.000067744
Loading maneuver chart data...
Computing Atmospheric mass density...
Loading historical data...
Loading historical data...
Loading historical data...
Loading historical data...
Loading historical data...
Loading historical data...
Loading historical data...

Documentation

Showing up to 5 results
|